User: anonymous   Login
Location: Freistadt
(48.5112°N, 14.5013°E)
Time: 15:17:06
(UTC+02:00)
Language:

XW-2C - Orbit

View from above orbital plane
View from above orbital plane
View from above satellite
View from above satellite

Ground track
Ground track

The orbit data is extracted from the following two-line orbital elements,

1 40906U 15049H   23091.15976556  .00017931  00000-0  73269-3 0  9998
2 40906  97.4977  98.1421 0014522  75.9076 348.4622 15.24336844416658
Epoch (UTC): 01 April 2023 03:50:03
Eccentricity: 0.0014522
inclination: 97.4977°
perigee height: 483 km
apogee height: 503 km
right ascension of ascending node: 98.1421°
argument of perigee: 75.9076°
revolutions per day: 15.24336844
mean anomaly at epoch: 348.4622°
orbit number at epoch: 41665

The dashed part of the orbit path shows where the satellite is in the earth's shadow,  

DLR